TOM64Y EGGW-EDDB

Flight info

Callsign TOM64Y
Flight time 1h 26m
Altitude 33000
Route MATCH Q295 BRAIN M197 REDFA DCT TACHA DCT NIE DCT BATEL T207 OGBER OGBER1L
Aircraft B738/M-SDFGHIJ1RWXYZ/LB1

Departure

Time 2026-05-04 08:19
Airport London Luton Airport (EGGW)

Arrival

Time 2026-05-04 09:46
Airport Berlin Brandenburg Airport (EDDB)
Time Latitude Longitude Altitude Speed Heading
2026-05-04 07:49 51.87812 -0.37146 512 ft 0 kts 252°
2026-05-04 08:10 51.87842 -0.37059 511 ft 2 kts 210°
2026-05-04 08:11 51.87857 -0.37049 510 ft 2 kts 183°
2026-05-04 08:11 51.87882 -0.37059 509 ft 0 kts 162°
2026-05-04 08:14 51.87881 -0.37058 509 ft 2 kts 162°
2026-05-04 08:16 51.87584 -0.37390 521 ft 11 kts 272°
2026-05-04 08:16 51.87534 -0.37475 520 ft 11 kts 208°
2026-05-04 08:16 51.87496 -0.37581 522 ft 11 kts 255°
2026-05-04 08:17 51.87476 -0.37698 522 ft 11 kts 254°
2026-05-04 08:17 51.87456 -0.37815 522 ft 11 kts 254°
2026-05-04 08:17 51.87436 -0.37929 523 ft 10 kts 254°
2026-05-04 08:17 51.87405 -0.38030 523 ft 8 kts 224°
2026-05-04 08:19 51.87827 -0.34747 1014 ft 157 kts 71°
2026-05-04 08:19 51.88142 -0.33015 1855 ft 165 kts 72°
2026-05-04 08:20 51.88480 -0.31084 2142 ft 193 kts 73°
2026-05-04 08:20 51.88855 -0.28879 2395 ft 212 kts 73°
2026-05-04 08:20 51.89257 -0.26500 2773 ft 224 kts 73°
2026-05-04 08:20 51.89565 -0.23997 3349 ft 230 kts 91°
2026-05-04 08:21 51.89095 -0.21553 3853 ft 232 kts 127°
2026-05-04 08:21 51.87842 -0.19934 4387 ft 235 kts 152°
2026-05-04 08:21 51.86307 -0.18738 4678 ft 254 kts 156°
2026-05-04 08:21 51.84759 -0.17622 4952 ft 267 kts 156°
2026-05-04 08:22 51.83039 -0.16410 4976 ft 271 kts 156°
2026-05-04 08:22 51.81321 -0.15203 5006 ft 268 kts 156°
2026-05-04 08:24 51.75898 0.00652 7099 ft 281 kts 82°
2026-05-04 08:24 51.76174 0.03801 7706 ft 283 kts 83°
2026-05-04 08:24 51.76441 0.06960 8443 ft 286 kts 83°
2026-05-04 08:24 51.76707 0.10173 9161 ft 290 kts 84°
2026-05-04 08:25 51.76972 0.13429 9944 ft 294 kts 83°
2026-05-04 08:25 51.77239 0.16749 10460 ft 306 kts 84°
2026-05-04 08:25 51.77520 0.20259 10643 ft 329 kts 84°
2026-05-04 08:25 51.77818 0.23992 11116 ft 339 kts 83°
2026-05-04 08:26 51.78124 0.27797 11815 ft 343 kts 83°
2026-05-04 08:27 51.80347 0.55574 16851 ft 370 kts 84°
2026-05-04 08:28 51.80673 0.59724 17548 ft 373 kts 84°
2026-05-04 08:28 51.81000 0.63909 18236 ft 377 kts 84°
2026-05-04 08:28 51.81481 0.68112 18812 ft 382 kts 77°
2026-05-04 08:28 51.82143 0.72303 19349 ft 388 kts 76°
2026-05-04 08:29 51.82826 0.76546 19894 ft 393 kts 76°
2026-05-04 08:29 51.83503 0.80861 20445 ft 397 kts 77°
2026-05-04 08:29 51.84213 0.85208 20994 ft 402 kts 75°
2026-05-04 08:31 51.89989 1.16729 24491 ft 432 kts 75°
2026-05-04 08:33 51.95965 1.50331 27248 ft 456 kts 77°
2026-05-04 08:33 51.96840 1.55301 27615 ft 460 kts 77°
2026-05-04 08:35 52.02686 1.91019 30411 ft 470 kts 80°
2026-05-04 08:35 52.03474 1.96146 30885 ft 467 kts 80°
2026-05-04 08:35 52.04262 2.01257 31395 ft 464 kts 79°
2026-05-04 08:35 52.05041 2.06313 31885 ft 461 kts 79°
2026-05-04 08:37 52.09652 2.36520 32986 ft 456 kts 78°
2026-05-04 08:37 52.10408 2.41520 32992 ft 454 kts 78°
2026-05-04 08:38 52.11956 2.51520 33005 ft 457 kts 76°
2026-05-04 08:38 52.13823 2.61437 33006 ft 460 kts 74°
2026-05-04 08:40 52.21418 3.01441 32995 ft 462 kts 75°
2026-05-04 08:41 52.23264 3.11408 32995 ft 462 kts 75°
2026-05-04 08:41 52.25116 3.21449 32993 ft 461 kts 75°
2026-05-04 08:42 52.26375 3.31652 33001 ft 457 kts 84°
2026-05-04 08:42 52.27207 3.41896 32987 ft 457 kts 85°
2026-05-04 08:43 52.28028 3.52211 32992 ft 457 kts 85°
2026-05-04 08:43 52.28870 3.62493 32995 ft 457 kts 85°
2026-05-04 08:44 52.29724 3.72814 32996 ft 458 kts 84°
2026-05-04 08:46 52.33072 4.14200 32993 ft 461 kts 85°
2026-05-04 08:46 52.33885 4.24549 32991 ft 461 kts 85°
2026-05-04 08:47 52.34670 4.34657 32987 ft 462 kts 85°
2026-05-04 08:47 52.35471 4.45092 32990 ft 462 kts 85°
2026-05-04 08:48 52.36263 4.55521 32991 ft 462 kts 85°
2026-05-04 08:48 52.37045 4.65957 32991 ft 462 kts 85°
2026-05-04 08:49 52.37818 4.76396 32993 ft 462 kts 85°
2026-05-04 08:50 52.40447 5.12902 32980 ft 461 kts 85°
2026-05-04 08:51 52.41178 5.23352 32990 ft 461 kts 85°
2026-05-04 08:51 52.41899 5.33800 32989 ft 461 kts 85°
2026-05-04 08:52 52.42607 5.44183 32993 ft 461 kts 85°
2026-05-04 08:52 52.43310 5.54638 32991 ft 461 kts 85°
2026-05-04 08:54 52.46025 5.96398 32985 ft 460 kts 86°
2026-05-04 08:55 52.46681 6.06850 32987 ft 460 kts 86°
2026-05-04 08:55 52.47328 6.17294 32986 ft 460 kts 86°
2026-05-04 09:01 52.53444 7.24992 32986 ft 459 kts 88°
2026-05-04 09:01 52.53981 7.35372 32995 ft 459 kts 88°
2026-05-04 09:02 52.54512 7.45821 32999 ft 459 kts 88°
2026-05-04 09:02 52.55035 7.56293 32999 ft 459 kts 88°
2026-05-04 09:03 52.55548 7.66756 32999 ft 459 kts 88°
2026-05-04 09:03 52.56053 7.77235 32993 ft 459 kts 88°
2026-05-04 09:04 52.56546 7.87662 32997 ft 460 kts 88°
2026-05-04 09:04 52.57033 7.98158 33002 ft 460 kts 88°
2026-05-04 09:05 52.57510 8.08656 32985 ft 460 kts 89°
2026-05-04 09:05 52.57979 8.19160 32992 ft 460 kts 89°
2026-05-04 09:06 52.58434 8.29580 32995 ft 460 kts 89°
2026-05-04 09:08 52.60177 8.71579 32992 ft 459 kts 89°
2026-05-04 09:08 52.60588 8.82049 32992 ft 458 kts 89°
2026-05-04 09:09 52.60989 8.92509 32998 ft 458 kts 90°
2026-05-04 09:09 52.61381 9.02972 32996 ft 458 kts 90°
2026-05-04 09:10 52.61765 9.13464 32998 ft 458 kts 90°
2026-05-04 09:10 52.62137 9.23861 32992 ft 458 kts 90°
2026-05-04 09:11 52.62503 9.34345 33000 ft 459 kts 90°
2026-05-04 09:11 52.62453 9.44803 33003 ft 455 kts 97°
2026-05-04 09:12 52.61980 9.55209 32991 ft 455 kts 98°
2026-05-04 09:14 52.60150 9.96954 32986 ft 458 kts 98°
2026-05-04 09:14 52.59696 10.07343 32990 ft 457 kts 98°
2026-05-04 09:15 52.59230 10.17776 32991 ft 457 kts 98°
2026-05-04 09:15 52.58754 10.28195 32989 ft 456 kts 98°
2026-05-04 09:17 52.56499 10.75070 30254 ft 456 kts 98°
2026-05-04 09:18 52.56239 10.80261 29785 ft 453 kts 98°
2026-05-04 09:18 52.55979 10.85407 29302 ft 449 kts 98°
2026-05-04 09:18 52.55720 10.90486 28851 ft 444 kts 98°
2026-05-04 09:18 52.55463 10.95464 28401 ft 440 kts 98°
2026-05-04 09:19 52.55204 11.00450 27942 ft 437 kts 98°
2026-05-04 09:19 52.54945 11.05395 27519 ft 433 kts 98°
2026-05-04 09:19 52.54704 11.10311 27062 ft 430 kts 95°
2026-05-04 09:19 52.54700 11.15225 26625 ft 429 kts 91°
2026-05-04 09:20 52.54816 11.20119 26174 ft 427 kts 90°
2026-05-04 09:20 52.54966 11.24985 25747 ft 425 kts 89°
2026-05-04 09:20 52.55116 11.29827 25319 ft 423 kts 89°
2026-05-04 09:20 52.55252 11.34635 24896 ft 420 kts 90°
2026-05-04 09:21 52.55375 11.39430 24473 ft 418 kts 90°
2026-05-04 09:21 52.55486 11.44193 24051 ft 416 kts 90°
2026-05-04 09:21 52.55590 11.48943 23619 ft 415 kts 90°
2026-05-04 09:21 52.55690 11.53677 23134 ft 413 kts 90°
2026-05-04 09:22 52.55786 11.58387 22675 ft 411 kts 90°
2026-05-04 09:22 52.55880 11.63060 22238 ft 408 kts 90°
2026-05-04 09:22 52.55971 11.67657 21812 ft 405 kts 90°
2026-05-04 09:22 52.56060 11.72269 21392 ft 402 kts 91°
2026-05-04 09:23 52.56147 11.76858 20980 ft 399 kts 91°
2026-05-04 09:23 52.56232 11.81415 20563 ft 397 kts 91°
2026-05-04 09:23 52.56315 11.85925 20158 ft 394 kts 91°
2026-05-04 09:23 52.56395 11.90420 19753 ft 392 kts 91°
2026-05-04 09:25 52.56708 12.21264 16679 ft 380 kts 92°
2026-05-04 09:25 52.56833 12.25596 16304 ft 378 kts 84°
2026-05-04 09:26 52.57216 12.29855 15937 ft 375 kts 82°
2026-05-04 09:26 52.57654 12.34068 15550 ft 373 kts 81°
2026-05-04 09:26 52.58094 12.38246 15165 ft 370 kts 81°
2026-05-04 09:26 52.58521 12.42407 14788 ft 368 kts 82°
2026-05-04 09:27 52.58933 12.46544 14414 ft 366 kts 82°
2026-05-04 09:27 52.59335 12.50670 14032 ft 364 kts 82°
2026-05-04 09:27 52.59727 12.54763 13658 ft 362 kts 82°
2026-05-04 09:27 52.60115 12.58857 13235 ft 361 kts 82°
2026-05-04 09:28 52.60501 12.62931 12822 ft 360 kts 82°
2026-05-04 09:28 52.60885 12.66996 12384 ft 359 kts 82°
2026-05-04 09:28 52.61261 12.71005 11959 ft 358 kts 82°
2026-05-04 09:28 52.61656 12.75046 11541 ft 357 kts 81°
2026-05-04 09:29 52.62087 12.79064 11129 ft 356 kts 81°
2026-05-04 09:29 52.62522 12.83009 11026 ft 343 kts 80°
2026-05-04 09:29 52.62946 12.86837 10771 ft 338 kts 81°
2026-05-04 09:29 52.63363 12.90632 10420 ft 336 kts 81°
2026-05-04 09:30 52.63773 12.94392 10218 ft 329 kts 81°
2026-05-04 09:30 52.64168 12.98040 10153 ft 318 kts 81°
2026-05-04 09:30 52.64547 13.01565 10063 ft 308 kts 81°
2026-05-04 09:30 52.64912 13.04972 9855 ft 304 kts 81°
2026-05-04 09:31 52.65278 13.08398 9543 ft 302 kts 81°
2026-05-04 09:31 52.65640 13.11803 9308 ft 298 kts 81°
2026-05-04 09:31 52.65992 13.15125 9182 ft 290 kts 81°
2026-05-04 09:31 52.66334 13.18361 9039 ft 284 kts 81°
2026-05-04 09:32 52.66668 13.21527 8898 ft 277 kts 81°
2026-05-04 09:32 52.66992 13.24615 8762 ft 272 kts 81°
2026-05-04 09:34 52.64601 13.44683 7753 ft 260 kts 115°
2026-05-04 09:34 52.63920 13.47446 7485 ft 260 kts 115°
2026-05-04 09:34 52.63246 13.50212 7250 ft 259 kts 115°
2026-05-04 09:34 52.62579 13.52964 7015 ft 258 kts 114°
2026-05-04 09:35 52.61917 13.55706 6781 ft 257 kts 114°
2026-05-04 09:35 52.61260 13.58433 6596 ft 256 kts 114°
2026-05-04 09:35 52.60611 13.61124 6407 ft 256 kts 114°
2026-05-04 09:35 52.59954 13.63854 6212 ft 256 kts 114°
2026-05-04 09:37 52.55393 13.82708 5665 ft 250 kts 118°
2026-05-04 09:37 52.54337 13.84913 5303 ft 245 kts 150°
2026-05-04 09:38 52.52815 13.85872 5214 ft 227 kts 176°
2026-05-04 09:38 52.51305 13.85895 5156 ft 209 kts 188°
2026-05-04 09:38 52.49893 13.85701 5047 ft 198 kts 189°
2026-05-04 09:38 52.48539 13.85505 4878 ft 193 kts 189°
2026-05-04 09:39 52.47213 13.85323 4692 ft 189 kts 189°
2026-05-04 09:39 52.45915 13.85153 4551 ft 186 kts 188°
2026-05-04 09:39 52.44643 13.84940 4366 ft 188 kts 198°
2026-05-04 09:39 52.43652 13.83720 4177 ft 179 kts 243°
2026-05-04 09:40 52.43090 13.81875 3936 ft 183 kts 243°
2026-05-04 09:40 52.42516 13.80013 3693 ft 182 kts 246°
2026-05-04 09:40 52.42012 13.78122 3463 ft 180 kts 248°
2026-05-04 09:40 52.41547 13.76234 3222 ft 177 kts 249°
2026-05-04 09:41 52.41095 13.74363 2972 ft 176 kts 249°
2026-05-04 09:42 52.38139 13.61978 1454 ft 148 kts 250°
2026-05-04 09:43 52.37771 13.60432 1233 ft 144 kts 249°
2026-05-04 09:43 52.37410 13.58918 1052 ft 148 kts 250°
2026-05-04 09:43 52.37034 13.57340 808 ft 146 kts 249°
2026-05-04 09:43 52.36666 13.55800 652 ft 147 kts 251°
2026-05-04 09:44 52.36306 13.54263 431 ft 143 kts 249°
2026-05-04 09:44 52.35943 13.52744 266 ft 143 kts 249°
2026-05-04 09:44 52.35591 13.51256 158 ft 129 kts 249°
2026-05-04 09:46 52.35383 13.49387 147 ft 10 kts 69°
2026-05-04 09:46 52.35404 13.49477 147 ft 16 kts 69°
2026-05-04 09:46 52.35476 13.49778 147 ft 25 kts 69°
2026-05-04 09:47 52.35516 13.49946 147 ft 24 kts 69°
2026-05-04 09:47 52.35574 13.50189 147 ft 23 kts 68°
2026-05-04 09:49 52.35930 13.50881 154 ft 4 kts 68°
2026-05-04 09:49 52.35947 13.50910 154 ft 4 kts 15°
2026-05-04 09:49 52.35971 13.50901 154 ft 4 kts 339°
2026-05-04 09:51 52.36016 13.50873 154 ft 0 kts 339°